User: anonymous   Login
Location: Mt. Cuba Astronomical Observatory
(39.8100°N, 75.6300°W)
Time: 06:38:26
(UTC-04:00)
Language:

Cosmos 2058 - Orbit

View from above orbital plane
View from above orbital plane
View from above satellite
View from above satellite

Ground track
Ground track

The orbit data is extracted from the following two-line orbital elements,

1 20465U 90010A   15088.11644439  .00002707  00000-0  23756-3 0  9993
2 20465 082.4900 307.0728 0016872 140.7921 219.4526 14.96153953363992
Epoch (UTC): 29 March 2015 02:47:40
Eccentricity: 0.0016872
inclination: 82.4900°
perigee height: 567 km
apogee height: 590 km
right ascension of ascending node: 307.0728°
argument of perigee: 140.7921°
revolutions per day: 14.96153953
mean anomaly at epoch: 219.4526°
orbit number at epoch: 36399

The dashed part of the orbit path shows where the satellite is in the earth's shadow,  

DLR